Location: Bucksport
(44.6167°N, 68.8000°W)
Time: 00:27:35
(UTC-04:00)

Envisat - Visible Passes

Search period start: 19 October 2019 00:00
Search period end: 29 October 2019 00:00
Orbit: 764 x 766 km, 98.1° (Epoch: 18 October)

Date Brightness Start Highest point End Pass type
(mag) Time Alt. Az. Time Alt. Az. Time Alt. Az.
19 Oct 6.3 06:14:55 10° NE 06:17:44 15° E 06:20:33 10° ESE visible
19 Oct 4.1 19:08:41 10° S 19:13:33 46° W 19:18:26 10° NNW visible
20 Oct 3.0 18:31:38 10° SSE 18:36:43 83° ENE 18:41:49 10° NNW visible
20 Oct 6.1 20:14:16 10° WSW 20:16:22 12° W 20:18:30 10° WNW visible
21 Oct 5.1 19:34:56 10° SSW 19:39:12 27° W 19:43:30 10° NW visible
22 Oct 6.6 06:04:39 10° ENE 06:06:19 11° E 06:08:01 10° ESE visible
22 Oct 3.7 18:57:15 10° S 19:02:14 58° W 19:07:16 10° NNW visible
23 Oct 3.0 18:20:27 10° SSE 18:25:28 67° ENE 18:30:32 10° N visible
23 Oct 5.9 20:01:55 10° SW 20:04:59 16° W 20:08:02 10° NW visible
24 Oct 6.0 06:28:25 10° NE 06:32:10 20° E 06:35:52 10° SE visible
24 Oct 4.7 19:23:17 10° SSW 19:27:52 34° W 19:32:28 10° NNW visible
25 Oct 3.3 18:45:53 10° S 18:50:57 73° WSW 18:56:03 10° NNW visible
26 Oct 3.1 18:09:19 10° SSE 18:14:14 53° ENE 18:19:12 10° N visible
26 Oct 5.6 19:49:54 10° SW 19:53:35 20° W 19:57:17 10° NW visible
27 Oct 6.1 06:17:38 10° NE 06:20:46 16° E 06:23:53 10° SE visible
27 Oct 4.3 19:11:44 10° SSW 19:16:32 42° W 19:21:21 10° NNW visible
28 Oct 3.0 18:34:36 10° SSE 18:39:41 90° NW 18:44:48 10° NNW visible
28 Oct 6.2 20:17:52 10° WSW 20:19:25 11° W 20:20:57 10° WNW visible
